This is the latest recevied weather packets stored in our database for station/object KO4YAW. If no packets are shown the sender has not sent any weather packets the latest 10 day(s).
| Time | Temp. | Humidity | Pressure | Rain* | Wind** | Luminosity | Snow |
|---|---|---|---|---|---|---|---|
| 1777845632 | 21.67° C | 17% | 1012.6 hPa | 0 mm | - | 214 W/m² | - |
| 1777844732 | 22.22° C | 16% | 1012.8 hPa | 0 mm | - | 272 W/m² | - |
| 1777843832 | 22.78° C | 16% | 1012.8 hPa | 0 mm | - | 452 W/m² | - |
| 1777842932 | 22.78° C | 15% | 1013.1 hPa | 0 mm | - | 451 W/m² | - |
| 1777842032 | 23.33° C | 15% | 1013.1 hPa | 0 mm | - | 647 W/m² | - |
| 1777841132 | 23.33° C | 15% | 1013.4 hPa | 0 mm | - | 860 W/m² | - |
| 1777840232 | 23.89° C | 15% | 1013.5 hPa | 0 mm | - | 101 W/m² | - |
| 1777839332 | 22.78° C | 16% | 1013.7 hPa | 0 mm | - | 116 W/m² | - |
| 1777838432 | 22.78° C | 15% | 1014.1 hPa | 0 mm | - | 997 W/m² | - |
| 1777837532 | 22.22° C | 16% | 1014.3 hPa | 0 mm | - | 892 W/m² | - |
| 1777836632 | 22.22° C | 16% | 1014.5 hPa | 0 mm | - | 648 W/m² | - |
| 1777835732 | 21.67° C | 17% | 1014.6 hPa | 0 mm | - | 826 W/m² | - |
| 1777834832 | 21.11° C | 18% | 1014.9 hPa | 0 mm | - | 759 W/m² | - |
| 1777833932 | 20° C | 18% | 1015.2 hPa | 0 mm | - | 705 W/m² | - |
| 1777833032 | 20.56° C | 18% | 1015.6 hPa | 0 mm | - | 734 W/m² | - |
| 1777832132 | 20.56° C | 20% | 1015.8 hPa | 0 mm | - | 556 W/m² | - |
| 1777831232 | 20° C | 20% | 1015.8 hPa | 0 mm | - | 679 W/m² | - |
| 1777830332 | 20° C | 21% | 1016.2 hPa | 0 mm | - | 500 W/m² | - |
| 1777829432 | 19.44° C | 21% | 1016.4 hPa | 0 mm | - | 475 W/m² | - |
| 1777828532 | 19.44° C | 22% | 1016.7 hPa | 0 mm | - | 445 W/m² | - |
| 1777827632 | 18.89° C | 22% | 1016.9 hPa | 0 mm | - | 446 W/m² | - |
| 1777826732 | 18.89° C | 22% | 1017 hPa | 0 mm | - | 468 W/m² | - |
| 1777825832 | 18.89° C | 23% | 1017 hPa | 0 mm | - | 452 W/m² | - |
| 1777824932 | 18.33° C | 24% | 1017.1 hPa | 0 mm | - | 462 W/m² | - |
| 1777824032 | 17.78° C | 24% | 1017.2 hPa | 0 mm | - | 402 W/m² | - |
* Rain since midnight (hover to see other rain measurements)
** Current wind speed in m/s (hover to see current wind gust speed)